SAUDISAT 5A

Last updated on Mon Sep 07 2026 00:02:46 GMT+0000 (Coordinated Universal Time)

1 43831U 18102A 26249.60848771 .00003310 00000+0 12095-3 0 9991 2 43831 97.2991 309.6244 0008929 194.8989 165.1990 15.28757982428113
UTC large
Height (km)
Speed (km/s)
/
Latitude / Longitude
Inclination (degrees)
Orbital Period (minutes)
Azimuth
Elevation
Range (km)
Doppler Factor

Next 0 passes for location: London (51.5072 / 0.1276)

No passes found over London.
SAUDISAT 5A